When you browse on this site, cookies collect data to enhance your experience and personalize the content and advertising you see.
Visit our Privacy Policy to learn more. By continuing to use the site, you agree to this use of cookies and data.
  • In Hungary
  • List of Countries
  • For 7 days
  • Water Temperature
  • Satellite Maps
  • Weather Map
  • News
  • Weather Widgets
  • user-avatar
    Login

    Hourly Weather Ciemino

    Today, 17 December, Monday

    Time Temperature Precipitation Wind Pressure Humidity
    00:00 -4°C° 0 mm 3 mps 761 mmHg 80%
    01:00 -4°C° 0 mm 3 mps 761 mmHg 80%
    02:00 -4°C° 0 mm 3 mps 762 mmHg 80%
    03:00 -4°C° 0 mm 3 mps 762 mmHg 80%
    04:00 -4°C° 0 mm 3 mps 762 mmHg 79%
    05:00 -4°C° 0 mm 3 mps 762 mmHg 79%
    06:00 -4°C° 0 mm 3 mps 762 mmHg 79%
    07:00 -4°C° 0 mm 3 mps 762 mmHg 78%
    08:00 -2°C° 0 mm 2 mps 763 mmHg 77%
    09:00 -2°C° 0 mm 2 mps 763 mmHg 76%
    10:00 -2°C° 0 mm 2 mps 763 mmHg 75%
    11:00 -2°C° 0 mm 2 mps 764 mmHg 74%
    12:00 -2°C° 0 mm 2 mps 764 mmHg 72%
    13:00 +1°C° 0 mm 1 mps 764 mmHg 70%
    14:00 0°C° 0 mm 1 mps 764 mmHg 73%
    15:00 0°C° 0 mm 1 mps 765 mmHg 75%
    16:00 0°C° 0 mm 1 mps 765 mmHg 77%
    17:00 -1°C° 0 mm 1 mps 765 mmHg 78%
    18:00 -1°C° 0 mm 1 mps 766 mmHg 78%
    19:00 -1°C° 0 mm 1 mps 766 mmHg 79%
    20:00 -1°C° 0 mm 1 mps 766 mmHg 79%
    21:00 -3°C° 0 mm 2 mps 766 mmHg 80%
    22:00 -3°C° 0 mm 2 mps 767 mmHg 80%
    23:00 -3°C° 0 mm 2 mps 767 mmHg 81%

    Tomorrow, 18 December, Tuesday

    Time Temperature Precipitation Wind Pressure Humidity
    00:00 -3°C° 0 mm 2 mps 767 mmHg 81%
    01:00 -3°C° 0 mm 2 mps 767 mmHg 81%
    02:00 -3°C° 0 mm 2 mps 767 mmHg 82%
    03:00 -3°C° 0 mm 2 mps 767 mmHg 82%
    04:00 -4°C° 0 mm 2 mps 767 mmHg 82%
    05:00 -3°C° 0 mm 2 mps 767 mmHg 82%
    06:00 -3°C° 0 mm 2 mps 767 mmHg 83%
    07:00 -3°C° 0 mm 2 mps 768 mmHg 83%
    08:00 -3°C° 0 mm 2 mps 768 mmHg 82%
    09:00 -4°C° 0 mm 3 mps 768 mmHg 82%
    10:00 -2°C° 0 mm 3 mps 768 mmHg 82%
    11:00 -2°C° 0 mm 3 mps 768 mmHg 82%
    12:00 -1°C° 0 mm 3 mps 767 mmHg 82%
    13:00 -1°C° 0 mm 2 mps 767 mmHg 83%
    14:00 -1°C° 0 mm 2 mps 767 mmHg 85%
    15:00 -1°C° 0 mm 2 mps 767 mmHg 88%
    16:00 -1°C° 0 mm 3 mps 767 mmHg 90%
    17:00 -1°C° 0 mm 3 mps 767 mmHg 91%
    18:00 -1°C° 0 mm 3 mps 767 mmHg 92%
    19:00 -1°C° 0 mm 3 mps 767 mmHg 93%
    20:00 -1°C° 0 mm 3 mps 767 mmHg 93%
    21:00 -1°C° 0 mm 3 mps 767 mmHg 94%
    22:00 -1°C° 0 mm 3 mps 767 mmHg 94%
    23:00 0°C° 0 mm 3 mps 767 mmHg 94%

    Day after tomorrow, 19 December, Wednesday

    Time Temperature Precipitation Wind Pressure Humidity
    00:00 0°C° 0 mm 3 mps 767 mmHg 95%
    01:00 -1°C° 0 mm 4 mps 767 mmHg 95%
    02:00 -1°C° 0 mm 4 mps 766 mmHg 95%
    03:00 -1°C° 0 mm 4 mps 766 mmHg 95%
    04:00 -1°C° 0 mm 4 mps 766 mmHg 95%
    05:00 -1°C° 0 mm 4 mps 766 mmHg 94%
    06:00 -1°C° 0 mm 5 mps 766 mmHg 94%
    07:00 -1°C° 0 mm 5 mps 766 mmHg 93%
    08:00 -1°C° 0 mm 5 mps 766 mmHg 92%
    09:00 -2°C° 0 mm 6 mps 766 mmHg 91%
    10:00 -2°C° 0 mm 6 mps 766 mmHg 90%
    11:00 -2°C° 0 mm 6 mps 766 mmHg 88%
    12:00 -2°C° 0 mm 6 mps 765 mmHg 86%
    13:00 -2°C° 0 mm 7 mps 765 mmHg 84%
    14:00 -3°C° 0 mm 7 mps 765 mmHg 80%
    15:00 -3°C° 0 mm 7 mps 764 mmHg 77%
    16:00 -3°C° 0 mm 7 mps 764 mmHg 73%
    17:00 -4°C° 0 mm 7 mps 764 mmHg 75%
    18:00 -5°C° 0 mm 8 mps 764 mmHg 76%
    19:00 -5°C° 0 mm 8 mps 764 mmHg 77%
    20:00 -5°C° 0 mm 8 mps 764 mmHg 77%
    21:00 -5°C° 0 mm 8 mps 763 mmHg 77%
    22:00 -5°C° 0 mm 8 mps 763 mmHg 77%
    23:00 -4°C° 0 mm 7 mps 763 mmHg 77%

    20 December, Thursday

    Time Temperature Precipitation Wind Pressure Humidity
    00:00 -4°C° 0 mm 7 mps 763 mmHg 77%
    01:00 -4°C° 0 mm 7 mps 763 mmHg 77%
    02:00 -4°C° 0 mm 7 mps 763 mmHg 77%
    03:00 -4°C° 0 mm 7 mps 762 mmHg 77%
    04:00 -4°C° 0 mm 7 mps 762 mmHg 77%
    05:00 -4°C° 0 mm 7 mps 762 mmHg 78%
    06:00 -4°C° 0 mm 7 mps 762 mmHg 78%
    07:00 -4°C° 0 mm 6 mps 762 mmHg 79%
    08:00 -4°C° 0.1 mm 6 mps 762 mmHg 79%
    09:00 -4°C° 0.1 mm 6 mps 763 mmHg 79%
    10:00 -4°C° 0.1 mm 6 mps 763 mmHg 78%
    11:00 -4°C° 0.1 mm 6 mps 763 mmHg 77%
    12:00 -2°C° 0.1 mm 5 mps 762 mmHg 77%
    13:00 -2°C° 0.1 mm 5 mps 762 mmHg 76%
    14:00 -4°C° 0 mm 5 mps 762 mmHg 77%
    15:00 -4°C° 0 mm 5 mps 762 mmHg 79%
    16:00 -4°C° 0 mm 5 mps 762 mmHg 81%
    17:00 -4°C° 0 mm 5 mps 762 mmHg 81%
    18:00 -4°C° 0 mm 5 mps 763 mmHg 82%
    19:00 -4°C° 0 mm 5 mps 763 mmHg 82%
    20:00 -3°C° 0 mm 4 mps 763 mmHg 82%
    21:00 -4°C° 0 mm 4 mps 763 mmHg 82%
    22:00 -4°C° 0 mm 4 mps 763 mmHg 83%
    23:00 -4°C° 0 mm 4 mps 763 mmHg 83%

    21 December, Friday

    Time Temperature Precipitation Wind Pressure Humidity
    00:00 -4°C° 0 mm 4 mps 763 mmHg 83%
    01:00 -4°C° 0 mm 4 mps 763 mmHg 84%
    02:00 -4°C° 0 mm 4 mps 762 mmHg 83%
    03:00 -4°C° 0 mm 3 mps 762 mmHg 83%
    04:00 -4°C° 0 mm 3 mps 762 mmHg 83%
    05:00 -4°C° 0 mm 3 mps 762 mmHg 83%
    06:00 -4°C° 0 mm 3 mps 762 mmHg 83%
    07:00 -4°C° 0 mm 3 mps 762 mmHg 84%
    08:00 -4°C° 0 mm 3 mps 762 mmHg 83%
    09:00 -4°C° 0 mm 3 mps 763 mmHg 82%
    10:00 -4°C° 0 mm 3 mps 763 mmHg 81%
    11:00 -2°C° 0 mm 3 mps 763 mmHg 81%
    12:00 -2°C° 0 mm 3 mps 763 mmHg 80%
    13:00 -2°C° 0 mm 3 mps 762 mmHg 80%
    14:00 -2°C° 0 mm 3 mps 762 mmHg 81%
    15:00 -2°C° 0 mm 3 mps 762 mmHg 83%
    16:00 -4°C° 0 mm 3 mps 762 mmHg 84%
    17:00 -4°C° 0 mm 3 mps 762 mmHg 85%
    18:00 -4°C° 0 mm 3 mps 762 mmHg 86%
    19:00 -4°C° 0 mm 3 mps 762 mmHg 87%
    20:00 -4°C° 0 mm 3 mps 762 mmHg 88%
    21:00 -4°C° 0 mm 3 mps 762 mmHg 88%
    22:00 -4°C° 0 mm 3 mps 762 mmHg 89%
    23:00 -4°C° 0 mm 3 mps 762 mmHg 89%

    22 December, Saturday

    Time Temperature Precipitation Wind Pressure Humidity
    00:00 -4°C° 0 mm 3 mps 762 mmHg 88%
    01:00 -4°C° 0 mm 4 mps 761 mmHg 88%
    02:00 -4°C° 0 mm 4 mps 761 mmHg 88%
    03:00 -4°C° 0 mm 4 mps 761 mmHg 88%
    04:00 -4°C° 0 mm 4 mps 761 mmHg 88%
    05:00 -4°C° 0 mm 4 mps 761 mmHg 88%
    06:00 -5°C° 0 mm 4 mps 761 mmHg 88%
    07:00 -5°C° 0 mm 4 mps 762 mmHg 88%
    08:00 -4°C° 0 mm 4 mps 762 mmHg 87%
    09:00 -4°C° 0 mm 4 mps 762 mmHg 86%
    10:00 -4°C° 0 mm 4 mps 762 mmHg 85%
    11:00 -3°C° 0 mm 4 mps 763 mmHg 84%
    12:00 -3°C° 0 mm 4 mps 763 mmHg 83%
    13:00 -3°C° 0 mm 4 mps 763 mmHg 81%
    14:00 -3°C° 0 mm 4 mps 763 mmHg 83%
    15:00 -2°C° 0 mm 3 mps 763 mmHg 84%
    16:00 -2°C° 0 mm 3 mps 764 mmHg 86%
    17:00 -2°C° 0 mm 3 mps 764 mmHg 87%
    18:00 -4°C° 0 mm 3 mps 764 mmHg 88%
    19:00 -4°C° 0 mm 3 mps 765 mmHg 90%
    20:00 -4°C° 0 mm 3 mps 765 mmHg 90%
    21:00 -4°C° 0 mm 3 mps 765 mmHg 91%
    22:00 -4°C° 0 mm 3 mps 766 mmHg 92%
    23:00 -3°C° 0 mm 2 mps 766 mmHg 93%
    Show more